SCP
2 1 1 1 1 1 1 1 1 0 0 1 1 1 1 0 0 1 1 1 1 1 1 1 0 0 0 1 1 1 1 1 1 1 1 1 1 1
1 1 1 1 1 1 1 1 1 1 1 1 1 1 1 1 0 1 1 1 1 1 1 0 0 0 0 0 0 0 0 1 1 0 0 1 1 1
1 1 1 1 1 1 1 1 1 1 1 1 1 1 1 1 1 1 1 1 1 1 1 0 0 0 0 0 0 0 0 0 0 0 0 0 1 1
1 1 2 2 2 2 2 2 2 2 2 1 1 1 1 1 1 1 1 1 1 1 1 1 0 0 0 0 0 0 0 0 0 0 0 0 0 1
2 2 2 3 3 3 3 3 3 3 2 2 1 1 1 1 1 1 1 1 1 1 1 1 1 1 0 0 0 0 0 0 0 0 0 0 0 0
3 3 3 4 4 4 4 4 4 3 3 2 2 1 1 1 1 1 1 1 1 1 1 1 1 1 1 1 0 0 0 0 0 0 0 0 0 0
4 4 4 4 4 4 4 4 4 4 3 3 2 2 2 2 2 2 1 1 1 1 1 1 1 1 0 0 0 0 0 0 0 0 0 0 0 0
4 4 4 4 4 4 3 3 3 3 3 3 3 2 2 2 2 2 2 2 1 1 1 1 1 0 0 0 0 0 0 0 0 0 0 0 0 0
3 3 3 3 3 3 2 2 2 2 2 2 3 2 2 3 3 3 3 2 2 1 1 1 1 1 1 0 0 0 0 0 0 0 0 0 0 0
1 2 2 2 2 2 2 2 2 2 2 2 2 2 2 2 3 3 3 3 2 2 2 2 2 2 2 1 1 0 0 0 0 0 0 0 0 0
1 1 1 1 1 1 1 2 2 2 2 2 2 2 2 1 2 2 3 3 2 2 2 3 3 2 2 1 1 0 0 0 0 0 0 0 0 0
1 1 1 1 1 1 1 1 2 2 2 2 2 1 1 1 1 2 2 3 3 2 2 2 2 2 1 1 1 1 0 0 0 0 0 0 0 0
2 2 2 1 1 1 1 1 1 1 1 2 2 1 1 1 1 2 2 3 3 3 2 2 2 2 1 1 1 1 0 0 0 0 0 0 0 0
3 3 2 1 1 0 0 1 1 0 1 1 2 2 2 2 2 2 2 2 2 2 2 2 2 1 1 1 1 0 0 0 0 0 0 0 0 0
3 2 2 2 1 0 0 0 0 0 1 1 2 2 2 2 2 2 2 2 2 2 2 2 1 1 1 1 0 0 0 0 0 0 0 0 0 0
2 2 1 1 1 1 1 1 1 1 1 2 2 2 2 2 1 1 1 1 1 1 1 1 1 1 1 0 0 0 0 0 0 0 0 0 0 0
1 1 2 1 1 1 2 3 3 3 3 3 3 3 2 2 1 1 1 1 1 1 1 1 1 1 1 0 0 0 0 0 0 0 0 0 0 0
1 2 2 2 2 2 2 3 4 5 5 5 4 4 3 1 1 1 1 1 1 1 1 2 2 2 1 1 0 0 0 0 0 0 0 0 0 0
1 1 2 2 2 2 2 3 4 4 5 5 5 4 2 1 1 1 1 1 1 1 1 2 2 2 2 1 1 0 0 0 0 0 0 0 0 0
0 1 1 1 1 1 2 2 2 3 3 3 3 2 2 1 1 1 1 1 1 1 1 1 2 2 2 1 1 0 0 0 0 0 0 0 0 0
0 0 1 1 1 1 1 1 2 2 2 2 2 2 2 2 2 2 1 1 1 1 1 1 2 1 1 1 1 0 0 0 0 0 0 0 0 0
0 0 0 0 0 0 1 1 1 2 2 2 2 2 2 2 2 2 2 1 1 1 1 1 2 1 1 1 1 1 0 0 0 0 0 0 0 0
0 0 0 0 0 0 0 0 1 1 2 2 2 2 2 3 2 2 1 1 0 0 1 2 2 1 1 1 1 1 0 0 0 0 0 0 0 0
Wind_Speed
2 1 1 1 1 1 2 3 4 2 2 3 2 2 2 2 3 3 3 5 6 6 6 6 6 6 6 5 4 4 3 3 3 3 4 6 7 8
1 1 1 1 1 1 1 1 2 3 3 3 3 2 2 3 4 3 3 5 6 6 6 6 7 6 6 6 6 5 4 4 3 3 3 4 4 5
2 1 1 1 0 1 0 1 1 2 2 2 1 1 2 2 1 2 2 3 3 7 7 7 7 7 6 6 5 5 5 5 5 4 4 4 4 5
2 1 1 1 0 0 0 1 1 2 3 2 1 1 2 2 2 2 2 2 3 5 5 5 5 6 6 7 6 6 6 6 5 5 5 4 4 5
2 2 2 1 1 1 1 1 1 1 1 2 2 1 1 1 1 2 2 2 3 3 4 5 5 6 6 7 7 8 7 7 7 6 6 6 6 6
2 2 2 2 2 2 1 1 1 1 1 1 1 1 1 1 0 1 2 2 2 2 2 3 4 6 7 7 7 8 8 8 8 8 7 7 7 6
1 2 2 2 2 2 2 2 2 1 1 1 1 1 1 1 1 2 2 2 2 2 1 2 2 2 4 6 7 8 8 9 9 8 8 8 8 7
2 1 2 2 2 2 2 2 3 3 3 2 2 2 3 2 2 1 1 0 2 2 1 3 1 2 3 3 6 8 8 8 8 8 8 8 8 8
3 2 1 1 1 1 2 1 1 2 4 4 3 4 3 3 2 2 1 2 3 3 1 2 2 3 3 4 7 7 7 7 8 8 8 9 9 9
3 3 2 1 1 1 0 0 1 2 2 2 3 3 3 3 3 3 3 2 2 2 1 2 2 2 3 3 5 7 8 8 8 8 8 8 9 8
1 1 2 2 2 1 1 0 2 3 2 1 2 3 3 3 2 1 0 0 2 3 1 1 2 2 2 2 4 6 7 7 7 8 8 8 8 7
1 1 2 1 1 2 2 1 1 3 2 2 1 2 2 2 2 3 2 2 1 2 2 1 1 0 2 2 2 2 3 5 7 7 7 7 6 4
1 1 1 1 1 1 2 2 3 2 1 1 1 1 2 2 2 2 3 3 3 4 3 2 1 1 2 2 2 2 2 2 2 3 5 6 7 6
2 2 1 1 2 1 1 1 1 0 0 1 1 2 2 2 3 2 3 4 4 5 4 3 2 2 2 2 3 2 2 2 2 2 3 3 5 8
2 2 1 1 1 1 1 1 0 1 0 1 1 2 2 2 2 2 2 2 3 4 3 3 3 3 2 3 3 2 2 2 2 2 3 3 3 3
1 1 0 1 0 1 1 0 0 1 1 1 2 2 2 2 2 1 1 2 2 3 4 3 3 3 3 3 3 3 2 2 2 3 3 3 3 3
1 1 1 1 1 1 1 1 0 0 1 1 1 1 2 2 2 2 1 1 1 3 4 4 3 2 3 3 2 3 3 3 3 3 2 3 4 4
3 1 1 1 2 2 1 1 1 1 2 1 1 1 1 1 2 2 1 1 1 2 3 3 3 3 3 2 2 3 2 3 3 2 2 3 4 4
2 2 2 2 2 2 2 1 1 2 1 1 1 1 1 1 1 1 2 2 2 2 3 2 1 1 2 4 4 2 2 2 2 2 3 3 4 4
1 2 2 2 2 1 1 1 1 1 0 0 1 1 1 1 1 1 2 2 2 2 3 2 2 2 3 4 3 3 3 2 2 3 3 2 3 4
1 1 1 1 1 1 1 1 0 0 1 1 1 1 1 1 1 2 2 3 2 2 3 4 4 5 2 1 2 3 3 3 3 3 2 2 2 2
1 1 1 1 1 1 1 1 1 0 1 1 1 1 1 1 2 2 2 2 2 2 3 4 4 2 1 1 3 4 4 4 4 5 4 3 2 2
2 2 2 1 1 1 1 1 1 0 1 1 2 2 2 2 2 2 2 2 2 2 2 3 3 2 2 2 3 3 4 4 3 3 4 5 6 7
Wind_Direction
234 222 217 238 222 211 183 171 167 201 256 253 248 248 233 219 218 210 212 217 216 217 224 229 228 224 224 224 226 232 236 241 242 238 233 231 231 235
227 200 228 248 241 232 200 190 173 178 218 242 234 238 226 221 214 213 224 222 222 225 226 229 228 224 221 218 219 221 221 228 234 228 228 237 235 238
255 217 240 239 235 264 232 190 186 169 202 262 263 253 213 226 232 234 233 226 232 232 232 233 230 225 220 218 221 224 225 227 229 232 232 234 240 243
246 221 245 248 262 278 267 239 220 198 183 228 275 280 247 239 236 237 246 235 236 235 230 233 231 228 224 221 220 222 225 227 229 232 236 238 241 243
212 200 221 204 238 255 250 236 227 218 177 188 250 270 276 279 295 279 268 276 249 234 221 232 235 233 229 227 224 223 223 224 227 229 233 237 241 243
210 202 207 202 213 230 233 223 203 184 182 184 241 272 269 273 218 254 289 287 269 264 246 239 239 237 233 230 229 227 226 226 228 230 232 234 235 235
211 205 208 199 208 219 220 208 192 195 199 200 230 263 271 271 249 240 251 275 281 259 274 266 245 245 239 238 235 234 230 228 228 230 231 234 236 232
205 225 224 207 238 251 248 217 197 199 204 203 220 228 248 240 239 236 228 306 287 270 220 269 220 242 244 233 241 239 234 231 230 232 233 235 237 238
192 205 230 252 237 259 271 271 265 236 203 192 204 229 236 232 218 236 225 224 244 256 196 267 264 255 253 247 237 237 238 236 236 235 234 235 237 238
207 203 199 243 263 217 197 343 311 297 244 207 215 233 229 225 207 213 219 246 278 276 175 238 266 256 264 257 249 241 243 240 240 241 241 238 236 237
226 205 196 207 247 187 138 276 315 312 313 230 216 236 241 233 193 138 65 47 301 288 230 204 266 279 279 267 260 249 243 243 246 247 244 239 235 233
275 261 221 207 229 180 169 180 269 288 320 357 346 315 294 279 229 192 191 198 237 278 262 202 248 272 302 285 272 273 261 257 255 252 248 241 230 216
216 265 278 255 241 226 185 202 241 253 283 329 330 324 320 297 272 232 204 192 202 237 245 189 221 213 220 282 297 270 248 256 255 262 255 245 225 203
213 235 241 230 230 246 227 273 269 289 2 4 341 312 304 292 281 264 241 228 224 232 241 191 204 212 212 249 272 284 273 254 235 242 246 245 231 224
227 226 213 206 225 245 260 266 287 56 46 348 300 288 281 284 298 306 304 281 273 269 262 225 212 219 201 222 243 253 274 272 244 241 244 231 224 211
252 293 84 112 35 322 330 346 124 184 198 231 260 285 310 335 336 324 313 318 325 314 307 279 244 223 233 238 230 250 239 248 259 244 244 246 231 217
157 70 38 30 4 335 326 316 296 334 270 283 294 314 327 333 325 333 342 351 335 313 319 328 320 279 240 228 245 253 254 258 252 250 241 254 250 233
131 142 197 223 232 241 250 272 267 246 248 251 260 282 297 303 312 328 346 335 300 297 301 313 336 346 346 319 245 251 268 267 271 259 234 245 264 259
135 190 213 223 234 245 237 234 251 256 247 234 243 271 281 288 298 316 322 313 295 290 291 301 326 327 306 296 295 256 247 277 286 275 253 240 253 260
181 211 227 230 222 226 228 230 260 306 334 308 299 302 297 298 306 310 302 294 292 299 309 315 297 263 249 261 274 291 271 251 261 269 272 273 272 282
218 230 227 212 214 196 194 186 173 174 337 320 318 301 292 289 287 291 294 299 296 302 302 291 280 282 269 302 309 302 298 285 261 253 261 277 296 310
199 210 221 207 186 175 170 164 121 65 343 311 292 289 285 273 268 279 293 303 297 286 284 289 304 326 340 275 276 283 294 306 304 298 278 230 213 231
199 199 200 195 188 171 157 146 143 248 265 272 281 288 294 295 289 282 279 279 287 295 303 310 321 324 301 273 275 283 291 299 304 318 309 297 267 256